[[{"header":{"parameterUnit":"m.s-1","parameterCategory":2,"la1":30.2991,"la2":30.254,"lo1":-89.0895,"lo2":-89.0444,"dy":0.0017,"dx":0.0017,"nx":28,"ny":28,"refTime":"2024-08-12T03:00:00:Z","depth":"0","parameterNumber":2,"parameterNumberName":"U-component_of_CURRENTS"},"data":[0,0,0,0,0,0,0,0,0,0,0,0,0,0,0,0,0,0,0,0,0,0,0,0,0,0,0,0,0,0,0,0,0,0,0,0,0,0,0,0,0,0,0,0,0,0,0,0,0,0,0,0,0,0,0,0,0,0,0.2202,0.2202,0,0.2242,0.2242,0.2243,0.2168,0.2166,0.2163,0.216,0.2248,0.2253,0.2258,0,0,0,0,0,0,0,0,0,0,0,0,0,0.2192,0.2192,0.2202,0.2202,0.2203,0.2242,0.2242,0.2243,0.2169,0.2165,0.2162,0.2159,0.2247,0.2252,0.2258,0,0,0,0,0,0,0,0,0,0,0,0,0,0.2212,0.2192,0.2202,0.2168,0.2166,0.2241,0.2242,0.2243,0.2169,0.2165,0.2161,0.2157,0.2245,0.2252,0.2259,0.2385,0,0,0.2281,0.2284,0,0,0,0,0,0,0,0,0.2211,0.2213,0.2173,0.2171,0.2168,0.2194,0.2271,0.2292,0.217,0.2171,0.216,0.2155,0.2236,0.2244,0.2263,0.2389,0.2393,0.2282,0.2286,0.2289,0.2292,0,0,0,0,0,0,0,0.221,0.2212,0.222,0.2174,0.217,0.2195,0.2193,0.2275,0.2228,0.217,0.2164,0.2166,0.2234,0.2256,0.2265,0.2394,0.2282,0.2288,0.2293,0.2296,0.273,0.2737,0,0,0,0,0,0,0.2198,0.221,0.2219,0.2221,0.2177,0.2198,0.2196,0.2192,0.2226,0.2227,0.217,0.2162,0.2246,0.2256,0.2267,0.2404,0.2289,0.2296,0.23,0.2723,0.2732,0.274,0,0,0,0,0,0,0.2197,0.2198,0.2217,0.2215,0.2218,0.2201,0.2198,0.2194,0.2217,0.2225,0.2225,0.2195,0.2243,0.2257,0.2376,0.2406,0.23,0.2306,0.2715,0.2726,0.2736,0.2687,0,0,0,0,0,0,0.2197,0.2198,0.2216,0.2214,0.2218,0.2292,0.2202,0.2198,0.2223,0.2214,0.2249,0.2251,0.2241,0.2365,0.2383,0.2415,0.2312,0.2706,0.272,0.2732,0.2679,0.2694,0.2707,0,0,0,0,0,0.2196,0.2245,0.2217,0.2219,0.2235,0.2296,0.2304,0.2278,0.2229,0.2277,0.2299,0.225,0.2463,0.2377,0.2396,0.243,0.2699,0.2716,0.2731,0.2673,0.2691,0.2707,0,0,0,0,0,0,0.2269,0.2241,0.221,0.225,0.2279,0.2282,0.2324,0.2304,0.2359,0.2342,0.2335,0.2345,0.2462,0.2503,0.2408,0.2617,0.2579,0.26,0.2529,0.2547,0.2561,0.2484,0.2318,0,0,0,0,0,0.2289,0.2303,0.2297,0.2337,0.2347,0.234,0.2364,0.2346,0.2379,0.2395,0.2414,0.2473,0.2554,0.2588,0.2673,0.2787,0.2788,0.2841,0.2855,0.2865,0.2833,0.2886,0.2896,0.2793,0.2792,0.2792,0,0,0.2325,0.2316,0.2323,0.2352,0.236,0.2395,0.2346,0.2392,0.2412,0.2406,0.2467,0.2528,0.2608,0.2717,0.2775,0.2739,0.2911,0.2886,0.2891,0.2853,0.2903,0.2911,0.2918,0.2803,0.2802,0.28,0,0,0.2407,0.2399,0.2431,0.2454,0.2472,0.2469,0.2486,0.2503,0.2502,0.259,0.2587,0.2665,0.2798,0.2827,0.2867,0.3038,0.2993,0.3097,0.3073,0.3127,0.3131,0.3134,0.3164,0.3171,0.3087,0.3087,0.3087,0,0.2453,0.2464,0.2466,0.2503,0.2501,0.25,0.2525,0.256,0.2613,0.2612,0.2616,0.2776,0.2837,0.2924,0.2974,0.3049,0.3069,0.2967,0.3127,0.3131,0.3135,0.3165,0.3173,0.3087,0.3087,0.3087,0.3087,0,0.2541,0.2548,0.2581,0.259,0.2618,0.265,0.2659,0.2693,0.2685,0.2691,0.2781,0.2869,0.2936,0.3002,0.3025,0.3109,0.3111,0.313,0.3035,0.3139,0.317,0.3178,0.3086,0.3087,0.3087,0.3087,0,0,0.2606,0.2627,0.2629,0.2607,0.2639,0.2656,0.2704,0.2718,0.2707,0.279,0.2788,0.294,0.2943,0.2996,0.3049,0.3092,0.3152,0.3113,0.3116,0.3055,0.325,0.3193,0.3196,0.318,0.3181,0.3183,0.3259,0,0.265,0.2688,0.2692,0.271,0.2707,0.27,0.2729,0.2748,0.2765,0.2787,0.2852,0.2911,0.2958,0.2981,0.3036,0.3132,0.3172,0.3128,0.3235,0.3237,0.3099,0.3203,0.3081,0.3133,0.3267,0.3268,0.3269,0,0.2697,0.27,0.2711,0.2678,0.2676,0.2695,0.2663,0.2696,0.2735,0.2748,0.2796,0.2848,0.2938,0.2965,0.3117,0.3084,0.3157,0.3221,0.3226,0.3178,0.3194,0.3062,0.3142,0.3014,0.3281,0.328,0.3279,0,0.2667,0.269,0.2671,0.2671,0.2672,0.2654,0.2652,0.2671,0.2669,0.2717,0.2723,0.2826,0.2879,0.2992,0.3121,0.3125,0.3265,0.3297,0.331,0.3306,0.3223,0.321,0.3107,0.3387,0.3387,0.3386,0.3386,0,0.2667,0.2646,0.2648,0.2634,0.259,0.2609,0.2573,0.2585,0.2609,0.2609,0.2693,0.272,0.2887,0.2984,0.3103,0.3219,0.3259,0.3301,0.3324,0.3215,0.32,0.3102,0.3056,0.3389,0.3389,0.3388,0.3387,0,0.2618,0.2633,0.2595,0.2581,0.2569,0.2531,0.251,0.25,0.253,0.2535,0.2551,0.2656,0.2784,0.293,0.3115,0.3187,0.3212,0.3339,0.3183,0.3185,0.3069,0.3029,0.2894,0.2827,0.3372,0.3371,0.337,0,0.2589,0.2569,0.2534,0.2508,0.2493,0.2452,0.243,0.2449,0.2446,0.2494,0.2499,0.2609,0.2679,0.2903,0.306,0.3232,0.3154,0.3195,0.3187,0.3028,0.3003,0.2901,0.2848,0.3081,0.3078,0.3076,0.3074,0,0.2513,0.2501,0.2476,0.2421,0.2386,0.2347,0.2324,0.2311,0.2344,0.2361,0.2396,0.2451,0.2648,0.2754,0.2952,0.3063,0.3,0.3147,0.3033,0.2794,0.2628,0.2585,0.3053,0.3051,0.3053,0.3055,0.3056,0.3057,0.2437,0.2401,0.237,0.2308,0.2279,0.2234,0.2187,0.2197,0.2179,0.2188,0.2285,0.2337,0.2482,0.275,0.2815,0.2816,0.2867,0.2784,0.2761,0.2682,0.2556,0.2952,0.2943,0.2944,0.2946,0.2947,0.2948,0,0.2317,0.2299,0.2257,0.2183,0.2127,0.2141,0.2106,0.2066,0.2033,0.2084,0.2115,0.2213,0.2291,0.2406,0.2485,0.2431,0.2381,0.2372,0.2193,0.2179,0.2576,0.2498,0.2328,0.2328,0.2328,0.2328,0.2328,0.2329,0.2252,0.2183,0.2167,0.2042,0.2003,0.1915,0.1887,0.186,0.1873,0.1859,0.1885,0.1957,0.2062,0.2088,0.203,0.203,0.1891,0.1819,0.1836,0.2094,0.213,0.2164,0.2077,0.1822,0.1821,0.1358,0.1354,0.1351]},{"header":{"parameterUnit":"m.s-1","parameterCategory":2,"la1":30.2991,"la2":30.254,"lo1":-89.0895,"lo2":-89.0444,"dy":0.0017,"dx":0.0017,"nx":28,"ny":28,"refTime":"2024-08-12T03:00:00:Z","depth":"0","parameterNumber":3,"parameterNumberName":"V-component_of_CURRENTS"},"data":[0,0,0,0,0,0,0,0,0,0,0,0,0,0,0,0,0,0,0,0,0,0,0,0,0,0,0,0,0,0,0,0,0,0,0,0,0,0,0,0,0,0,0,0,0,0,0,0,0,0,0,0,0,0,0,0,0,0,0.0262,0.0263,0,0.0373,0.0374,0.0375,0.0315,0.0312,0.0309,0.0306,0.0381,0.0386,0.0391,0,0,0,0,0,0,0,0,0,0,0,0,0,0.0131,0.0133,0.0262,0.0263,0.0265,0.0372,0.0374,0.0376,0.0316,0.0312,0.0308,0.0304,0.038,0.0386,0.0392,0,0,0,0,0,0,0,0,0,0,0,0,0,0.021,0.0133,0.0262,0.0247,0.0246,0.0372,0.0374,0.0376,0.0316,0.0312,0.0307,0.0303,0.0378,0.0385,0.0392,0.0532,0,0,0.0415,0.0418,0,0,0,0,0,0,0,0,0.0205,0.0215,0.0248,0.0248,0.0248,0.0324,0.0355,0.0426,0.0318,0.0291,0.0306,0.03,0.0362,0.037,0.0404,0.0535,0.0538,0.0416,0.042,0.0423,0.0425,0,0,0,0,0,0,0,0.02,0.0211,0.0307,0.025,0.025,0.028,0.0285,0.0369,0.0352,0.0293,0.0289,0.0301,0.0361,0.0397,0.0405,0.054,0.0415,0.0422,0.0426,0.0429,0.0839,0.0845,0,0,0,0,0,0,0.0183,0.0205,0.0303,0.031,0.0213,0.0285,0.0291,0.0305,0.0351,0.0354,0.0305,0.0298,0.0386,0.0396,0.0407,0.0581,0.0423,0.043,0.0434,0.0833,0.0841,0.0848,0,0,0,0,0,0,0.018,0.0191,0.0299,0.0259,0.0274,0.0291,0.0309,0.031,0.0344,0.036,0.0361,0.0336,0.0383,0.0397,0.0525,0.0582,0.0433,0.044,0.0825,0.0835,0.0844,0.0924,0,0,0,0,0,0,0.0176,0.0189,0.0215,0.0258,0.0276,0.0401,0.0313,0.0316,0.0358,0.035,0.039,0.0391,0.038,0.0515,0.0532,0.059,0.0446,0.0817,0.083,0.0841,0.0914,0.0936,0.0954,0,0,0,0,0,0.0171,0.0233,0.0216,0.0228,0.0303,0.0405,0.042,0.0415,0.0365,0.042,0.0451,0.0389,0.0602,0.0527,0.0546,0.0606,0.0811,0.0826,0.084,0.0904,0.0931,0.0954,0,0,0,0,0,0,0.0206,0.0234,0.0215,0.0284,0.0346,0.0394,0.0449,0.044,0.0511,0.0497,0.0486,0.0496,0.0627,0.0641,0.0557,0.0771,0.0694,0.0713,0.0736,0.0762,0.0782,0.075,0.0452,0,0,0,0,0,0.0222,0.0266,0.0305,0.037,0.0397,0.0426,0.0468,0.047,0.0526,0.0548,0.058,0.0633,0.0713,0.0749,0.0828,0.0959,0.0901,0.1015,0.1035,0.1051,0.1049,0.1006,0.1018,0.0895,0.0895,0.0895,0,0,0.0253,0.0279,0.0302,0.038,0.0418,0.0508,0.0441,0.0523,0.0594,0.0555,0.0679,0.0717,0.0772,0.0905,0.0963,0.0912,0.1071,0.107,0.1082,0.107,0.1022,0.1032,0.1041,0.0905,0.0903,0.0902,0,0,0.0354,0.0361,0.0431,0.049,0.056,0.059,0.0617,0.0685,0.0705,0.0843,0.0823,0.0905,0.1039,0.1075,0.111,0.131,0.1187,0.1336,0.1397,0.1357,0.1363,0.1367,0.1331,0.1332,0.1333,0.1334,0.1334,0,0.0385,0.0469,0.0479,0.0572,0.0623,0.0629,0.0726,0.0784,0.0889,0.0917,0.0897,0.1072,0.1119,0.1238,0.1304,0.1347,0.1289,0.1278,0.137,0.1374,0.1377,0.1338,0.1337,0.1339,0.1339,0.1338,0.1338,0,0.0538,0.0605,0.0664,0.076,0.0834,0.0925,0.0982,0.1055,0.1071,0.1104,0.1223,0.1288,0.1362,0.1411,0.1419,0.1491,0.1433,0.1393,0.1272,0.1391,0.1347,0.1344,0.1347,0.1345,0.1344,0.1342,0,0,0.0585,0.0731,0.0749,0.0801,0.0925,0.0994,0.1122,0.1219,0.1259,0.1355,0.1402,0.1562,0.1529,0.1571,0.1578,0.1563,0.1561,0.1486,0.1481,0.139,0.1449,0.1392,0.1383,0.1494,0.1494,0.1494,0.1413,0,0.0689,0.0861,0.0915,0.1077,0.1159,0.12,0.1308,0.1392,0.1436,0.1495,0.1526,0.1595,0.1607,0.1615,0.1614,0.1574,0.1555,0.1586,0.1402,0.1398,0.1279,0.1379,0.1352,0.1275,0.1409,0.1409,0.1408,0,0.0809,0.09,0.1061,0.1182,0.1218,0.1312,0.1415,0.1514,0.1589,0.1609,0.1654,0.1653,0.1703,0.1655,0.1625,0.1625,0.1555,0.1507,0.1501,0.1408,0.1335,0.1184,0.1264,0.1127,0.1403,0.1403,0.1404,0,0.0817,0.0993,0.1105,0.116,0.1313,0.1367,0.1439,0.1538,0.1589,0.1649,0.1661,0.1704,0.1699,0.1639,0.1589,0.1577,0.1498,0.1461,0.135,0.1344,0.127,0.1258,0.1141,0.1408,0.1408,0.1408,0.1408,0,0.0899,0.0985,0.1103,0.1169,0.1268,0.137,0.146,0.153,0.16,0.1649,0.1693,0.1715,0.1679,0.1642,0.158,0.147,0.149,0.1372,0.1322,0.1308,0.1301,0.1135,0.1091,0.1405,0.1406,0.1406,0.1407,0,0.0904,0.0995,0.1105,0.124,0.1277,0.1339,0.145,0.1508,0.1579,0.1629,0.164,0.1696,0.1658,0.1619,0.1518,0.1449,0.1283,0.13,0.1296,0.1248,0.1006,0.097,0.0842,0.082,0.1156,0.1154,0.1153,0,0.0929,0.099,0.1115,0.1158,0.1215,0.1308,0.1372,0.1477,0.1527,0.162,0.1633,0.1632,0.1645,0.1515,0.1394,0.1268,0.1201,0.1133,0.1126,0.0997,0.092,0.0917,0.091,0.1073,0.1071,0.1069,0.1067,0,0.0948,0.0978,0.1058,0.1134,0.12,0.1285,0.1372,0.1404,0.1518,0.1561,0.1608,0.1627,0.1541,0.1425,0.1271,0.1182,0.1052,0.109,0.0954,0.0851,0.0844,0.0796,0.1125,0.1052,0.1054,0.1055,0.1056,0.1056,0.0929,0.0963,0.1043,0.1113,0.1184,0.1258,0.1301,0.1378,0.1446,0.1517,0.1562,0.1597,0.1459,0.126,0.1121,0.0833,0.0905,0.0738,0.0708,0.0718,0.0693,0.0993,0.0863,0.0864,0.0864,0.0864,0.0865,0,0.0912,0.096,0.1021,0.1106,0.1158,0.1212,0.1304,0.1336,0.1385,0.147,0.1514,0.147,0.1259,0.1059,0.0697,0.0487,0.048,0.0385,0.0373,0.0388,0.0631,0.0621,0.0436,0.0436,0.0436,0.0436,0.0436,0.0436,0.0909,0.0958,0.0994,0.1065,0.1115,0.1168,0.1209,0.1254,0.1318,0.1369,0.14,0.146,0.1296,0.0658,0.0223,0.0151,0.0059,0.0031,0.0007,0.0143,0.0174,0.0204,0.0181,-0.0093,-0.0093,-0.0203,-0.0205,-0.0206]}],[{"header":{"parameterUnit":"m.s-1","parameterCategory":2,"la1":30.2991,"la2":30.254,"lo1":-89.0895,"lo2":-89.0444,"dy":0.0017,"dx":0.0017,"nx":28,"ny":28,"refTime":"2024-08-12T03:00:00:Z","depth":"2","parameterNumber":2,"parameterNumberName":"U-component_of_CURRENTS"},"data":[0,0,0,0,0,0,0,0,0,0,0,0,0,0,0,0,0,0,0,0,0,0,0,0,0,0,0,0,0,0,0,0,0,0,0,0,0,0,0,0,0,0,0,0,0,0,0,0,0,0,0,0,0,0,0,0,0,0,0.1491,0.1492,0,0.1595,0.1597,0.1599,0.1619,0.1618,0.1616,0.1615,0.1648,0.165,0.1652,0,0,0,0,0,0,0,0,0,0,0,0,0,0.1417,0.1418,0.1491,0.1492,0.1492,0.1595,0.1597,0.1599,0.162,0.1618,0.1616,0.1614,0.1647,0.165,0.1652,0,0,0,0,0,0,0,0,0,0,0,0,0,0.1485,0.1418,0.1491,0.1509,0.1511,0.1595,0.1597,0.16,0.162,0.1618,0.1615,0.1613,0.1646,0.1649,0.1653,0.172,0,0,0.1663,0.1665,0,0,0,0,0,0,0,0,0.1481,0.1489,0.1506,0.1508,0.151,0.1585,0.1583,0.1634,0.1621,0.1587,0.1615,0.1612,0.1617,0.1622,0.1659,0.1721,0.1723,0.1663,0.1666,0.1667,0.1668,0,0,0,0,0,0,0,0.1476,0.1485,0.154,0.1507,0.1509,0.1548,0.1555,0.1594,0.1618,0.159,0.159,0.1589,0.1618,0.1656,0.166,0.1723,0.1663,0.1666,0.1669,0.167,0.1848,0.1851,0,0,0,0,0,0,0.1445,0.148,0.1537,0.1543,0.1481,0.155,0.1558,0.157,0.1619,0.1623,0.1591,0.159,0.1651,0.1656,0.1661,0.1708,0.1667,0.167,0.1672,0.1846,0.1849,0.1852,0,0,0,0,0,0,0.1443,0.145,0.1533,0.1507,0.1519,0.1552,0.1566,0.1573,0.1631,0.162,0.1623,0.1642,0.165,0.1656,0.175,0.171,0.1672,0.1675,0.1842,0.1847,0.185,0.1824,0,0,0,0,0,0,0.1441,0.1449,0.1471,0.1505,0.1519,0.1617,0.1568,0.1576,0.1629,0.1629,0.1665,0.1664,0.1648,0.1746,0.1754,0.1714,0.1678,0.1839,0.1844,0.1849,0.1821,0.1826,0.183,0,0,0,0,0,0.1438,0.1463,0.1472,0.1479,0.154,0.162,0.1635,0.1654,0.1634,0.1692,0.1723,0.1664,0.178,0.1754,0.1762,0.172,0.1837,0.1843,0.1849,0.1819,0.1825,0.183,0,0,0,0,0,0,0.1449,0.1468,0.1478,0.151,0.1578,0.1621,0.1667,0.168,0.1754,0.1755,0.1737,0.1743,0.1798,0.1803,0.1773,0.1795,0.1784,0.1792,0.1758,0.1764,0.1769,0.1716,0.168,0,0,0,0,0,0.146,0.1483,0.1526,0.1565,0.1597,0.1644,0.1682,0.1706,0.1757,0.1788,0.1794,0.181,0.1831,0.1836,0.1873,0.1911,0.1894,0.1884,0.1889,0.1892,0.1862,0.1854,0.1853,0.1871,0.1871,0.1871,0,0,0.1471,0.1488,0.1501,0.157,0.162,0.1643,0.1666,0.1744,0.1743,0.1779,0.1801,0.185,0.186,0.189,0.1908,0.1882,0.1887,0.19,0.1902,0.1868,0.186,0.1857,0.1854,0.1876,0.1875,0.1874,0,0,0.1487,0.1534,0.155,0.1596,0.167,0.1695,0.1721,0.1785,0.1806,0.1871,0.1867,0.1907,0.1952,0.1925,0.1918,0.1984,0.1933,0.1995,0.1942,0.1936,0.1932,0.1928,0.1919,0.1915,0.197,0.197,0.197,0,0.1504,0.1515,0.158,0.16,0.1617,0.1705,0.172,0.1758,0.1838,0.1848,0.1875,0.1928,0.194,0.192,0.1934,0.1976,0.1985,0.1906,0.1934,0.193,0.1926,0.1918,0.1913,0.1969,0.1969,0.1969,0.1969,0,0.1507,0.1526,0.1552,0.1575,0.162,0.1674,0.1708,0.1758,0.1789,0.1805,0.1853,0.1907,0.1922,0.1925,0.1943,0.1917,0.1937,0.1955,0.1898,0.1921,0.1914,0.1909,0.1968,0.1969,0.1969,0.1969,0,0,0.151,0.1542,0.1549,0.1549,0.1612,0.1648,0.1657,0.1695,0.169,0.1764,0.1748,0.1793,0.1843,0.1843,0.1873,0.1851,0.1841,0.189,0.189,0.1842,0.1838,0.1795,0.1786,0.1874,0.1873,0.1872,0.1845,0,0.1499,0.1498,0.1519,0.1523,0.1529,0.1588,0.1583,0.1625,0.1669,0.1686,0.1726,0.1754,0.1801,0.1831,0.1819,0.1855,0.1828,0.1847,0.1856,0.1855,0.1781,0.1778,0.1612,0.1569,0.1841,0.184,0.1839,0,0.1476,0.1478,0.1469,0.1479,0.1491,0.15,0.1524,0.154,0.1576,0.1615,0.165,0.1703,0.1707,0.1752,0.1766,0.1789,0.1804,0.1813,0.1813,0.1766,0.1802,0.1593,0.155,0.1831,0.1832,0.1833,0.1833,0,0.1422,0.1437,0.1424,0.1428,0.1454,0.1464,0.1488,0.1523,0.1537,0.1579,0.1602,0.1635,0.1669,0.1689,0.1744,0.1762,0.1751,0.1776,0.1736,0.1734,0.1584,0.157,0.175,0.175,0.175,0.175,0.1751,0,0.1376,0.1369,0.1403,0.1394,0.1391,0.1428,0.1436,0.1466,0.1502,0.1513,0.1577,0.1592,0.166,0.1683,0.1716,0.1715,0.1735,0.1705,0.1713,0.1577,0.1564,0.1786,0.179,0.1749,0.175,0.175,0.175,0,0.1312,0.1332,0.1322,0.1352,0.1364,0.1366,0.141,0.1417,0.1464,0.1478,0.1496,0.1559,0.1606,0.1655,0.1685,0.1675,0.1677,0.1668,0.1506,0.1494,0.1667,0.1671,0.1599,0.1597,0.1595,0.1594,0.1593,0,0.1265,0.1257,0.1288,0.1293,0.1313,0.133,0.1345,0.1395,0.1407,0.1458,0.1458,0.1513,0.1545,0.1568,0.1545,0.1551,0.165,0.1406,0.1386,0.1629,0.1646,0.1653,0.166,0.1188,0.1184,0.118,0.1177,0,0.1188,0.1219,0.1222,0.124,0.1259,0.1263,0.1294,0.1289,0.1347,0.1361,0.1391,0.1416,0.1432,0.1367,0.1372,0.1352,0.1391,0.1332,0.1607,0.1263,0.1243,0.126,0.1279,0.1145,0.1149,0.1151,0.1153,0.1154,0.1145,0.1142,0.1172,0.1187,0.1203,0.1206,0.1193,0.1216,0.1218,0.1211,0.1272,0.1258,0.121,0.114,0.1128,0.1121,0.1197,0.1144,0.1154,0.1169,0.1136,0.1115,0.0987,0.099,0.0992,0.0993,0.0995,0,0.1095,0.1116,0.1118,0.1133,0.1128,0.1169,0.1163,0.1125,0.1105,0.1098,0.1098,0.093,0.0891,0.0933,0.085,0.0828,0.0816,0.0831,0.0807,0.0835,0.0861,0.0815,0.058,0.058,0.058,0.0579,0,0,0.1071,0.1068,0.1077,0.106,0.108,0.1063,0.1053,0.0991,0.0962,0.084,0.0806,0.0804,0.0846,0.0687,0.0645,0.0636,0.0746,0.0608,0.0919,0.0915,0.0942,0.0994,0.0949,0,0,0,0,0]},{"header":{"parameterUnit":"m.s-1","parameterCategory":2,"la1":30.2991,"la2":30.254,"lo1":-89.0895,"lo2":-89.0444,"dy":0.0017,"dx":0.0017,"nx":28,"ny":28,"refTime":"2024-08-12T03:00:00:Z","depth":"2","parameterNumber":3,"parameterNumberName":"V-component_of_CURRENTS"},"data":[0,0,0,0,0,0,0,0,0,0,0,0,0,0,0,0,0,0,0,0,0,0,0,0,0,0,0,0,0,0,0,0,0,0,0,0,0,0,0,0,0,0,0,0,0,0,0,0,0,0,0,0,0,0,0,0,0,0,-0.0414,-0.0414,0,-0.039,-0.0389,-0.0388,-0.0384,-0.0385,-0.0386,-0.0387,-0.0406,-0.0406,-0.0405,0,0,0,0,0,0,0,0,0,0,0,0,0,-0.0384,-0.0384,-0.0414,-0.0414,-0.0414,-0.039,-0.0389,-0.0388,-0.0384,-0.0385,-0.0386,-0.0388,-0.0406,-0.0406,-0.0405,0,0,0,0,0,0,0,0,0,0,0,0,0,-0.0375,-0.0384,-0.0414,-0.0415,-0.0416,-0.039,-0.0389,-0.0388,-0.0384,-0.0385,-0.0387,-0.0388,-0.0406,-0.0406,-0.0405,-0.0375,0,0,-0.0404,-0.0404,0,0,0,0,0,0,0,0,-0.0376,-0.0375,-0.0415,-0.0415,-0.0416,-0.0398,-0.0386,-0.0388,-0.0384,-0.0388,-0.0387,-0.0389,-0.0411,-0.041,-0.0392,-0.0376,-0.0377,-0.0404,-0.0403,-0.0403,-0.0403,0,0,0,0,0,0,0,-0.0376,-0.0376,-0.0396,-0.0415,-0.0416,-0.0393,-0.0393,-0.0385,-0.0387,-0.0388,-0.0389,-0.0398,-0.0411,-0.0392,-0.0392,-0.0377,-0.0404,-0.0403,-0.0403,-0.0403,-0.0386,-0.0386,0,0,0,0,0,0,-0.0397,-0.0377,-0.0397,-0.0397,-0.0407,-0.0394,-0.0393,-0.0396,-0.0386,-0.0388,-0.0397,-0.0398,-0.0392,-0.0393,-0.0393,-0.0437,-0.0403,-0.0403,-0.0402,-0.0386,-0.0386,-0.0386,0,0,0,0,0,0,-0.0396,-0.0399,-0.0398,-0.0392,-0.0392,-0.0394,-0.0396,-0.0395,-0.0369,-0.0395,-0.0396,-0.0373,-0.0393,-0.0394,-0.036,-0.0435,-0.0402,-0.0402,-0.0386,-0.0386,-0.0386,-0.0474,0,0,0,0,0,0,-0.0395,-0.0398,-0.04,-0.0394,-0.0394,-0.0379,-0.0396,-0.0394,-0.0377,-0.0377,-0.0374,-0.0378,-0.0394,-0.0361,-0.036,-0.0434,-0.0402,-0.0386,-0.0386,-0.0386,-0.0471,-0.0477,-0.0481,0,0,0,0,0,-0.0394,-0.0403,-0.04,-0.0403,-0.0398,-0.0379,-0.0374,-0.0375,-0.0374,-0.0355,-0.0341,-0.0377,-0.0361,-0.0358,-0.0358,-0.0434,-0.0386,-0.0386,-0.0386,-0.0469,-0.0475,-0.0481,0,0,0,0,0,0,-0.0395,-0.0404,-0.04,-0.0412,-0.0392,-0.0381,-0.0371,-0.0361,-0.0331,-0.0324,-0.0343,-0.0344,-0.0357,-0.035,-0.0347,-0.0422,-0.0393,-0.0393,-0.0457,-0.0463,-0.0468,-0.0429,-0.0401,0,0,0,0,0,-0.0395,-0.0401,-0.0394,-0.0399,-0.0387,-0.0368,-0.0358,-0.0347,-0.0328,-0.0315,-0.0317,-0.0324,-0.0354,-0.0367,-0.0367,-0.0383,-0.0356,-0.0437,-0.0442,-0.0447,-0.0411,-0.043,-0.0435,-0.0385,-0.0385,-0.0385,0,0,-0.0398,-0.0404,-0.0408,-0.0398,-0.038,-0.0378,-0.0362,-0.0334,-0.0347,-0.0322,-0.0323,-0.0324,-0.0351,-0.0385,-0.0396,-0.0394,-0.0446,-0.0446,-0.0451,-0.0411,-0.0431,-0.0436,-0.044,-0.0384,-0.0384,-0.0384,0,0,-0.0412,-0.0403,-0.041,-0.0394,-0.037,-0.0364,-0.0353,-0.0322,-0.032,-0.031,-0.032,-0.0334,-0.036,-0.0402,-0.0434,-0.0451,-0.046,-0.0479,-0.0497,-0.0519,-0.0523,-0.0527,-0.0502,-0.0502,-0.0499,-0.05,-0.05,0,-0.0418,-0.0421,-0.0405,-0.0404,-0.0393,-0.0362,-0.0351,-0.0356,-0.0322,-0.0308,-0.0322,-0.0344,-0.0382,-0.0441,-0.047,-0.0474,-0.0452,-0.0488,-0.0528,-0.0531,-0.0534,-0.0507,-0.0507,-0.0504,-0.0503,-0.0503,-0.0503,0,-0.0434,-0.043,-0.0425,-0.0426,-0.041,-0.0383,-0.0386,-0.0363,-0.0362,-0.0365,-0.0376,-0.0403,-0.041,-0.0473,-0.0491,-0.0541,-0.0508,-0.0527,-0.0522,-0.0545,-0.0514,-0.0512,-0.051,-0.0508,-0.0507,-0.0506,0,0,-0.0463,-0.0442,-0.044,-0.0416,-0.0403,-0.0379,-0.04,-0.0385,-0.0367,-0.0391,-0.0377,-0.0477,-0.0449,-0.0474,-0.0508,-0.0554,-0.0591,-0.0551,-0.055,-0.0538,-0.0594,-0.055,-0.0543,-0.0623,-0.0623,-0.0623,-0.0567,0,-0.0471,-0.0459,-0.0458,-0.0436,-0.041,-0.0386,-0.0399,-0.0384,-0.0379,-0.0358,-0.0412,-0.0415,-0.0473,-0.0469,-0.0527,-0.0549,-0.0587,-0.06,-0.0558,-0.0555,-0.0526,-0.054,-0.0547,-0.0495,-0.0565,-0.0565,-0.0565,0,-0.0483,-0.0466,-0.0443,-0.039,-0.0376,-0.0371,-0.0317,-0.0321,-0.0312,-0.0301,-0.0311,-0.0323,-0.0375,-0.0426,-0.0489,-0.0488,-0.0533,-0.0573,-0.0573,-0.0488,-0.0507,-0.048,-0.0489,-0.0561,-0.0561,-0.0562,-0.0562,0,-0.0469,-0.0448,-0.0416,-0.0403,-0.0363,-0.0336,-0.0313,-0.029,-0.026,-0.0243,-0.0205,-0.0257,-0.0261,-0.0335,-0.0413,-0.0446,-0.0463,-0.0524,-0.0524,-0.0519,-0.0488,-0.0481,-0.0569,-0.0569,-0.0569,-0.057,-0.057,0,-0.046,-0.0431,-0.0398,-0.0373,-0.0313,-0.0296,-0.023,-0.0209,-0.0168,-0.0117,-0.0157,-0.0123,-0.0241,-0.0267,-0.0358,-0.0403,-0.0418,-0.0497,-0.0504,-0.0517,-0.0513,-0.0537,-0.0534,-0.0568,-0.0568,-0.0568,-0.0569,0,-0.0431,-0.0423,-0.037,-0.032,-0.0299,-0.0247,-0.0169,-0.0118,-0.0086,-0.0015,-0.0005,-0.0013,-0.0037,-0.0134,-0.0234,-0.0313,-0.038,-0.0401,-0.0377,-0.0383,-0.0434,-0.0436,-0.0389,-0.0387,-0.0385,-0.0384,-0.0382,0,-0.0405,-0.0378,-0.0321,-0.0279,-0.0249,-0.0177,-0.0123,-0.0078,-0.0024,0.0055,0.0094,0.0099,0.0118,0.003,-0.0122,-0.0228,-0.0294,-0.0303,-0.0392,-0.0404,-0.0416,-0.0421,-0.0425,-0.0385,-0.0384,-0.0383,-0.0383,0,-0.0336,-0.0323,-0.028,-0.021,-0.0147,-0.0076,0.0,0.0049,0.0108,0.0175,0.0262,0.0289,0.0216,0.0102,-0.0038,-0.0127,-0.0287,-0.0287,-0.031,-0.0427,-0.0396,-0.041,-0.0415,-0.0375,-0.0376,-0.0376,-0.0377,-0.0377,-0.0276,-0.0231,-0.0185,-0.0116,-0.0053,0.0023,0.0083,0.016,0.0254,0.0353,0.0372,0.0409,0.0228,0.0053,-0.0053,-0.0172,-0.0206,-0.0294,-0.03,-0.0305,-0.0312,-0.028,-0.0235,-0.0235,-0.0235,-0.0235,-0.0235,0,-0.0188,-0.0151,-0.0086,-0.0007,0.0059,0.0074,0.0166,0.0224,0.0334,0.0414,0.0495,0.0338,0.0236,0.0081,-0.0094,-0.0206,-0.0243,-0.023,-0.0287,-0.0294,-0.0301,-0.031,-0.0231,-0.0231,-0.0231,-0.0231,0,0,-0.013,-0.0061,-0.0037,0.0079,0.0126,0.0203,0.0247,0.0333,0.0392,0.0469,0.0477,0.045,0.0237,0.0084,-0.0069,-0.0132,-0.0175,-0.0135,-0.0134,-0.019,-0.0194,-0.0339,-0.036,0,0,0,0,0]}],[{"header":{"parameterUnit":"m.s-1","parameterCategory":2,"la1":30.2991,"la2":30.254,"lo1":-89.0895,"lo2":-89.0444,"dy":0.0017,"dx":0.0017,"nx":28,"ny":28,"refTime":"2024-08-12T03:00:00:Z","depth":"4","parameterNumber":2,"parameterNumberName":"U-component_of_CURRENTS"},"data":[0,0,0,0,0,0,0,0,0,0,0,0,0,0,0,0,0,0,0,0,0,0,0,0,0,0,0,0,0,0,0,0,0,0,0,0,0,0,0,0,0,0,0,0,0,0,0,0,0,0,0,0,0,0,0,0,0,0,-0.0011,-0.001,0,0.0087,0.0088,0.0089,0.0201,0.0202,0.0204,0.0205,0.0359,0.0362,0.0364,0,0,0,0,0,0,0,0,0,0,0,0,0,-0.0105,-0.0104,-0.0011,-0.001,-0.0009,0.0087,0.0088,0.0089,0.02,0.0202,0.0204,0.0206,0.0358,0.0361,0.0364,0,0,0,0,0,0,0,0,0,0,0,0,0,-0.0041,-0.0103,-0.0012,0.0058,0.0065,0.0086,0.0088,0.009,0.02,0.0202,0.0205,0.0207,0.0357,0.0361,0.0365,0.034,0,0,0.0377,0.0378,0,0,0,0,0,0,0,0,-0.0045,-0.0038,0.0046,0.0053,0.0061,0.0134,0.0112,0.0176,0.0199,0.0149,0.0205,0.0208,0.0287,0.0297,0.0309,0.0347,0.0354,0.0377,0.0379,0.0381,0.0382,0,0,0,0,0,0,0,-0.0049,-0.0041,0.0028,0.0047,0.0056,0.0083,0.0095,0.0124,0.0204,0.0153,0.0162,0.0171,0.0292,0.0305,0.0314,0.0356,0.0377,0.038,0.0383,0.0384,0.0464,0.0464,0,0,0,0,0,0,-0.0065,-0.0046,0.0025,0.0031,0.0013,0.0083,0.0096,0.0108,0.0203,0.0219,0.0169,0.0176,0.0298,0.0309,0.032,0.0361,0.0381,0.0385,0.0387,0.0465,0.0464,0.0464,0,0,0,0,0,0,-0.0067,-0.0059,0.0021,-0.0005,0.0007,0.0082,0.0094,0.0109,0.0176,0.0214,0.0232,0.0227,0.03,0.0315,0.0386,0.0366,0.0386,0.039,0.0465,0.0464,0.0464,0.0402,0,0,0,0,0,0,-0.007,-0.0061,-0.0053,-0.0007,0.0008,0.0048,0.0093,0.0109,0.0174,0.0186,0.0269,0.0282,0.0303,0.038,0.039,0.0371,0.0393,0.0465,0.0465,0.0464,0.0404,0.04,0.0395,0,0,0,0,0,-0.0074,-0.0077,-0.0053,-0.0044,0.0015,0.0048,0.0058,0.0119,0.0175,0.0192,0.0263,0.0283,0.0384,0.0384,0.0395,0.0377,0.0465,0.0465,0.0464,0.0406,0.04,0.0396,0,0,0,0,0,0,-0.0112,-0.0065,-0.0037,-0.0024,0.0016,0.0067,0.0083,0.0142,0.0211,0.024,0.0296,0.0313,0.0351,0.0385,0.0384,0.0399,0.0421,0.0423,0.0373,0.0368,0.0363,0.0364,0.0396,0,0,0,0,0,-0.012,-0.011,-0.0058,-0.0048,-0.0028,0.004,0.0068,0.0118,0.018,0.0216,0.0277,0.033,0.0346,0.0381,0.04,0.0431,0.0448,0.0422,0.0418,0.0414,0.0423,0.0423,0.0419,0.0463,0.0463,0.0463,0,0,-0.0135,-0.0108,-0.0101,-0.0055,-0.002,0.0013,0.0064,0.0114,0.0151,0.0218,0.0294,0.0318,0.035,0.0365,0.0385,0.0404,0.041,0.0413,0.041,0.0421,0.0422,0.0418,0.0414,0.0462,0.0462,0.0462,0,0,-0.0156,-0.0132,-0.012,-0.0088,-0.0028,0.0008,0.0036,0.0114,0.0157,0.0216,0.0259,0.0289,0.0345,0.0351,0.036,0.0351,0.0376,0.0357,0.0349,0.0348,0.0344,0.0341,0.0349,0.0348,0.0366,0.0366,0.0366,0,-0.0169,-0.014,-0.0113,-0.0086,-0.0052,0.0014,0.0053,0.0085,0.0183,0.0214,0.0235,0.03,0.0324,0.0333,0.0322,0.0337,0.0355,0.0362,0.0341,0.0338,0.0336,0.0346,0.0344,0.0363,0.0363,0.0363,0.0364,0,-0.0166,-0.0138,-0.0132,-0.0076,-0.0045,-0.0004,0.0046,0.0093,0.0152,0.019,0.0226,0.0248,0.0299,0.028,0.03,0.0294,0.0316,0.0322,0.035,0.0328,0.0339,0.0339,0.0358,0.0359,0.036,0.0361,0,0,-0.0189,-0.0136,-0.0129,-0.009,-0.0022,0.001,0.0045,0.0102,0.0147,0.0185,0.023,0.0221,0.0257,0.027,0.0287,0.0276,0.0258,0.03,0.0301,0.0301,0.0272,0.0232,0.0229,0.0266,0.0266,0.0266,0.0282,0,-0.0176,-0.0132,-0.0106,-0.0048,-0.0009,0.0043,0.0072,0.0124,0.0164,0.0214,0.0211,0.0254,0.0245,0.0277,0.0259,0.0268,0.0258,0.0254,0.0301,0.0303,0.0263,0.0227,0.0265,0.0282,0.0282,0.0282,0.0282,0,-0.0161,-0.0128,-0.0076,-0.0008,0.0015,0.0055,0.0132,0.0168,0.0213,0.0244,0.027,0.0294,0.0299,0.0288,0.0279,0.0285,0.0281,0.0265,0.0266,0.0255,0.0263,0.0313,0.0283,0.0283,0.0282,0.0282,0.0282,0,-0.0165,-0.0101,-0.0054,-0.0029,0.0046,0.0086,0.0134,0.0189,0.0227,0.0283,0.0317,0.0326,0.0354,0.033,0.0307,0.0312,0.0278,0.0286,0.0239,0.0237,0.0297,0.0301,0.0267,0.0267,0.0267,0.0267,0.0267,0,-0.0149,-0.0114,-0.0045,-0.0017,0.0055,0.0104,0.0177,0.022,0.0277,0.0311,0.0351,0.0349,0.0367,0.0352,0.0318,0.0273,0.0295,0.0231,0.0232,0.0271,0.0271,0.0297,0.03,0.0268,0.0268,0.0268,0.0267,0,-0.0163,-0.0122,-0.0065,0.002,0.0056,0.0111,0.0211,0.0247,0.0311,0.0356,0.0381,0.0394,0.0355,0.0347,0.0308,0.0299,0.0249,0.0226,0.0269,0.0274,0.0213,0.0213,0.0195,0.0194,0.0192,0.0191,0.0191,0,-0.0166,-0.014,-0.0046,-0.0,0.0048,0.0134,0.0184,0.0262,0.0292,0.0344,0.0346,0.0349,0.034,0.0262,0.0234,0.0194,0.0177,0.0207,0.0201,0.0199,0.0203,0.0205,0.0207,0.0189,0.0188,0.0188,0.0188,0,-0.0177,-0.0148,-0.0104,-0.001,0.0061,0.0128,0.0202,0.0218,0.0286,0.0349,0.0323,0.0311,0.026,0.0207,0.0197,0.0148,0.0221,0.0195,0.0198,0.0192,0.0192,0.0197,0.02,0.0184,0.0184,0.0185,0.0185,0,-0.019,-0.0166,-0.0106,-0.0018,0.0058,0.0102,0.0143,0.0179,0.022,0.0288,0.0247,0.0221,0.023,0.0176,0.0126,0.0118,0.0115,0.0157,0.0161,0.0166,0.0144,0.0138,0.0107,0,0,0,0,0,-0.0189,-0.017,-0.0113,-0.0022,0.0044,0.0092,0.0145,0.0172,0.0225,0.0212,0.0248,0.0188,0.0149,0.0102,0.0079,0.0077,0.0097,0.0054,0.0144,0.0161,0.0166,0.0139,0,0,0,0,0,0,-0.0196,-0.0156,-0.0129,-0.0047,0.0011,0.0077,0.01,0.013,0.0122,0.0173,0.0122,0.0205,0.0122,0.0155,0.0081,0.0078,0.0141,0.0053,0.0053,0.0158,0.0162,0.0166,0.0141,0,0,0,0,0]},{"header":{"parameterUnit":"m.s-1","parameterCategory":2,"la1":30.2991,"la2":30.254,"lo1":-89.0895,"lo2":-89.0444,"dy":0.0017,"dx":0.0017,"nx":28,"ny":28,"refTime":"2024-08-12T03:00:00:Z","depth":"4","parameterNumber":3,"parameterNumberName":"V-component_of_CURRENTS"},"data":[0,0,0,0,0,0,0,0,0,0,0,0,0,0,0,0,0,0,0,0,0,0,0,0,0,0,0,0,0,0,0,0,0,0,0,0,0,0,0,0,0,0,0,0,0,0,0,0,0,0,0,0,0,0,0,0,0,0,0.0295,0.0294,0,0.0224,0.0223,0.0222,0.0208,0.0209,0.021,0.0211,0.0083,0.0079,0.0075,0,0,0,0,0,0,0,0,0,0,0,0,0,0.0333,0.0332,0.0295,0.0294,0.0294,0.0224,0.0223,0.0222,0.0208,0.0209,0.021,0.0211,0.0084,0.0079,0.0074,0,0,0,0,0,0,0,0,0,0,0,0,0,0.0291,0.0332,0.0295,0.0282,0.028,0.0225,0.0223,0.0221,0.0208,0.0209,0.0211,0.0212,0.0086,0.008,0.0074,0.0007,0,0,0.0054,0.0051,0,0,0,0,0,0,0,0,0.0294,0.0289,0.0284,0.0282,0.0281,0.023,0.019,0.0148,0.0207,0.0231,0.0211,0.0212,0.0128,0.0118,0.0097,0.0001,-0.0005,0.0053,0.005,0.0047,0.0045,0,0,0,0,0,0,0,0.0297,0.0292,0.0263,0.0283,0.0281,0.025,0.0246,0.0181,0.0169,0.0229,0.0229,0.0227,0.0127,0.0104,0.0094,-0.0007,0.0054,0.0048,0.0044,0.0042,-0.0207,-0.021,0,0,0,0,0,0,0.0316,0.0295,0.0265,0.0261,0.0295,0.0249,0.0244,0.0242,0.0171,0.0163,0.0226,0.0226,0.0114,0.0102,0.009,0.0025,0.0047,0.0041,0.0037,-0.0204,-0.0208,-0.0211,0,0,0,0,0,0,0.0317,0.0314,0.0268,0.0279,0.0272,0.0248,0.0244,0.024,0.0211,0.0169,0.016,0.0203,0.0114,0.0099,0.0011,0.002,0.0038,0.0032,-0.0201,-0.0205,-0.0209,-0.0116,0,0,0,0,0,0,0.0318,0.0314,0.0325,0.0281,0.0272,0.0248,0.0243,0.0237,0.021,0.021,0.0146,0.0137,0.0114,0.002,0.0005,0.0011,0.0027,-0.0197,-0.0203,-0.0208,-0.0116,-0.0117,-0.0117,0,0,0,0,0,0.032,0.0333,0.0325,0.0322,0.0285,0.0248,0.024,0.0225,0.0208,0.0201,0.0135,0.0138,-0.0023,0.0012,-0.0005,0.0,-0.0195,-0.0201,-0.0207,-0.0115,-0.0116,-0.0117,0,0,0,0,0,0,0.0344,0.0332,0.0323,0.0329,0.0296,0.0248,0.025,0.0213,0.0154,0.0146,0.0096,0.008,0.0011,-0.0036,0.0005,-0.0097,-0.0107,-0.0117,-0.0031,-0.0033,-0.0034,-0.0003,0.0022,0,0,0,0,0,0.0356,0.0372,0.0333,0.0338,0.0328,0.0278,0.0262,0.0234,0.0177,0.0154,0.0092,0.0022,-0.0032,-0.0063,-0.0126,-0.019,-0.0209,-0.0205,-0.0205,-0.0205,-0.02,-0.0236,-0.0236,-0.0231,-0.0231,-0.0231,0,0,0.0364,0.0363,0.0368,0.0346,0.0324,0.0302,0.0272,0.0241,0.0211,0.0144,0.0074,0.0012,-0.0056,-0.0114,-0.0149,-0.0147,-0.0219,-0.0213,-0.0211,-0.0206,-0.0242,-0.0241,-0.0241,-0.0235,-0.0234,-0.0234,0,0,0.0382,0.0388,0.04,0.0381,0.0351,0.0318,0.0304,0.0232,0.0201,0.0116,0.0068,0.0004,-0.0104,-0.0133,-0.0162,-0.0221,-0.0225,-0.0249,-0.0216,-0.0249,-0.0248,-0.0247,-0.0253,-0.0254,-0.0243,-0.0242,-0.0242,0,0.0392,0.0396,0.0392,0.0392,0.0374,0.0324,0.03,0.0265,0.0162,0.0118,0.0104,-0.0057,-0.0102,-0.0156,-0.0164,-0.0211,-0.0231,-0.0186,-0.0241,-0.0241,-0.0242,-0.0249,-0.025,-0.0239,-0.0239,-0.0239,-0.024,0,0.0393,0.0408,0.0414,0.0403,0.0381,0.0355,0.0306,0.0253,0.0195,0.0142,0.0051,-0.002,-0.0113,-0.0128,-0.0154,-0.019,-0.0202,-0.0231,-0.0213,-0.0235,-0.0243,-0.0246,-0.0233,-0.0235,-0.0236,-0.0237,0,0,0.0388,0.041,0.0417,0.0408,0.0378,0.0347,0.031,0.0243,0.0198,0.0119,0.0056,-0.0015,-0.0064,-0.0103,-0.0147,-0.016,-0.0161,-0.0188,-0.0191,-0.0148,-0.0217,-0.0197,-0.0199,-0.0193,-0.0194,-0.0195,-0.0211,0,0.0384,0.0399,0.0399,0.0383,0.0373,0.0328,0.0294,0.0229,0.0169,0.0096,0.0043,-0.0029,-0.0047,-0.009,-0.0105,-0.0165,-0.017,-0.0153,-0.0244,-0.0246,-0.0188,-0.0202,-0.0197,-0.0214,-0.0215,-0.0215,-0.0215,0,0.0375,0.0387,0.0385,0.0363,0.035,0.0322,0.0242,0.0203,0.0125,0.0078,0.0018,-0.0035,-0.0077,-0.0088,-0.0152,-0.0143,-0.0171,-0.0195,-0.0197,-0.0213,-0.0233,-0.0202,-0.0221,-0.0221,-0.022,-0.022,-0.022,0,0.0366,0.0371,0.0369,0.0364,0.0331,0.0294,0.0255,0.0182,0.0146,0.0068,0.0034,-0.0035,-0.0076,-0.0119,-0.0168,-0.0167,-0.0227,-0.0241,-0.0242,-0.024,-0.0287,-0.0288,-0.0275,-0.0275,-0.0275,-0.0275,-0.0275,0,0.0354,0.0357,0.0362,0.036,0.0312,0.0286,0.0225,0.0175,0.0122,0.008,0.0026,-0.0024,-0.0086,-0.0133,-0.0169,-0.0211,-0.0234,-0.0231,-0.0247,-0.0251,-0.0248,-0.0287,-0.0288,-0.0275,-0.0275,-0.0275,-0.0275,0,0.0343,0.0365,0.0359,0.0334,0.0316,0.0275,0.0223,0.0185,0.0139,0.009,0.0071,-0.0014,-0.0077,-0.0122,-0.0197,-0.0212,-0.0256,-0.0265,-0.0245,-0.0261,-0.024,-0.0237,-0.0261,-0.026,-0.026,-0.0259,-0.0259,0,0.0333,0.034,0.0343,0.0329,0.0313,0.0264,0.0233,0.0189,0.0162,0.0085,0.0062,-0.0008,-0.0063,-0.0157,-0.0201,-0.0247,-0.0254,-0.0263,-0.0258,-0.0227,-0.024,-0.0238,-0.0236,-0.0259,-0.0258,-0.0258,-0.0258,0,0.0296,0.0319,0.0314,0.0306,0.028,0.0251,0.0208,0.0181,0.0133,0.013,0.0032,-0.0029,-0.0095,-0.0168,-0.0194,-0.0235,-0.0251,-0.0259,-0.026,-0.0255,-0.0224,-0.0238,-0.0236,-0.0257,-0.0257,-0.0257,-0.0257,0,0.0262,0.0256,0.0272,0.0249,0.0243,0.021,0.0188,0.0141,0.011,0.0051,0.0015,-0.0068,-0.0105,-0.0163,-0.0202,-0.022,-0.0222,-0.0227,-0.0229,-0.0231,-0.0214,-0.0171,-0.0197,0,0,0,0,0,0.0212,0.0211,0.0202,0.0182,0.0193,0.0189,0.016,0.0145,0.0118,0.0058,0.0036,-0.0029,-0.0107,-0.0162,-0.0178,-0.0183,-0.0217,-0.02,-0.0221,-0.0249,-0.0251,-0.0234,0,0,0,0,0,0,0.0179,0.0178,0.0186,0.0147,0.0133,0.0127,0.0108,0.009,0.0049,0.0025,-0.0026,-0.0013,-0.0095,-0.0089,-0.0172,-0.0178,-0.0191,-0.0222,-0.0222,-0.0248,-0.025,-0.0251,-0.0234,0,0,0,0,0]}]]